Location: Melizzano
(41.1500°N, 14.5000°E)
Time: 20:23:21
(UTC+00:00)

Cosmos 2239 Rocket - Visible Passes

Search period start: 19 September 2021 00:00
Search period end: 29 September 2021 00:00
Orbit: 955 x 991 km, 82.9° (Epoch: 19 September)

Date Brightness Start Highest point End Pass type
(mag) Time Alt. Az. Time Alt. Az. Time Alt. Az.
19 Sep 6.4 20:18:13 18° NNE 20:18:13 18° NNE 20:19:47 10° NNE visible
19 Sep 6.8 22:02:49 18° NNW 22:02:49 18° NNW 22:04:41 10° NNW visible
20 Sep 6.3 20:42:34 22° NNE 20:42:34 22° NNE 20:44:38 10° N visible
20 Sep 7.1 22:27:10 12° NW 22:27:10 12° NW 22:28:07 10° NNW visible
21 Sep 6.6 19:22:17 11° NE 19:22:17 11° NE 19:22:36 10° NE visible
21 Sep 6.4 21:06:52 24° N 21:06:52 24° N 21:09:12 10° N visible
22 Sep 6.3 19:46:35 17° NNE 19:46:35 17° NNE 19:48:07 10° NNE visible
22 Sep 6.6 21:31:11 20° NNW 21:31:11 20° NNW 21:33:25 10° N visible
23 Sep 6.1 20:10:52 23° NNE 20:10:52 23° NNE 20:13:07 10° NNE visible
23 Sep 6.9 21:55:28 15° NW 21:55:28 15° NW 21:57:10 10° NNW visible
24 Sep 6.6 18:50:32 10° NE 18:50:32 10° NE 18:50:35 10° NE visible
24 Sep 6.1 20:35:07 27° N 20:35:07 27° N 20:37:46 10° N visible
25 Sep 6.2 19:14:46 17° NE 19:14:46 17° NE 19:16:25 10° NNE visible
25 Sep 6.3 20:59:22 25° NNW 20:59:22 25° NNW 21:02:07 10° N visible
26 Sep 5.9 19:38:58 25° NNE 19:38:58 25° NNE 19:41:33 10° NNE visible
26 Sep 6.7 21:23:33 19° NW 21:23:33 19° NW 21:26:04 10° NNW visible
27 Sep 5.8 20:03:08 32° N 20:03:08 32° N 20:06:18 10° N visible
27 Sep 7.1 21:47:43 12° NW 21:47:43 12° NW 21:49:06 10° NW visible
28 Sep 6.1 18:42:40 17° NE 18:42:40 17° NE 18:44:38 10° NNE visible
28 Sep 5.9 20:27:14 32° NNW 20:27:14 32° NNW 20:30:46 10° N visible
